Regional Weather Roundup
Issued by NWS Goodland, KS

Home | Current Version | Previous Version | Graphics & Text | Print | Product List | Glossary On
Versions: 1 2 3 4 5 6 7 8 9 10 11 12 13 14 15 16 17 18 19 20 21 22 23 24 25 26 27 28 29 30 31 32 33 34 35 36 37 38 39 40 41 42 43 44 45 46 47 48 49 50
000
ASUS43 KGLD 281908
RWRGLD

GOODLAND FORECAST AREA HOURLY WEATHER ROUNDUP
NATIONAL WEATHER SERVICE GOODLAND KS
100 PM MDT THU AUG 28 2014

...OFFICIAL OBSERVATIONS...

CITY           SKY/WX    TMP DP  RH WIND       PRES   REMARKS
GOODLAND KS    MOSUNNY   77  59  53 NW16      30.01F
HILL CITY KS   PTSUNNY   77  64  64 VRB5      29.93F
IMPERIAL NEB   MOSUNNY   76  61  59 NW10      29.97F
MCCOOK NEB     PTSUNNY   80  59  48 W8        29.92F
AKRON CO       PTSUNNY   72  54  53 NW13      30.07F
BURLINGTON CO  SUNNY     77  50  38 NW17G25   30.04F
LIMON CO       MOSUNNY   72  46  39 NW14      30.12F
$$

...UNOFFICIAL OBSERVATIONS...

CITY           SKY/WX    TMP DP  RH WIND       PRES   REMARKS
COLBY KS       MOSUNNY   81  66  61 NW9       29.98S
GOVE KS          N/A     81  32  17 CALM        N/A
NORTON KS      MOSUNNY   81  57  44 N5        29.91F
SHARON SPRINGS   N/A     80  60  49 N14         N/A
WAKEENEY KS      N/A     78  64  61 MISG        N/A
KIT CARSON CO    N/A     77  50  38 N12G23      N/A
YUMA CO          N/A     74  58  56 NW15G22     N/A
$$


USA.gov is the U.S. government's official web portal to all federal, state and local government web resources and services.